GFSNIL_sfc_temp_000.txt.gz
Temp
59 59 58 59 60 59 60 60 61 62 62 62 63 63 63 62 62 61 61 61 62 61
59 60 59 58 60 59 60 62 61 62 61 61 62 63 62 62 61 62 63 63 63 64
59 60 59 58 58 61 61 62 60 59 60 60 60 61 61 60 61 61 62 63 62 62
59 59 59 58 58 59 60 61 60 60 60 60 60 60 59 59 61 61 60 61 62 60
59 59 59 59 58 59 59 60 60 62 60 60 59 60 61 60 61 60 60 60 60 59
57 58 58 58 58 59 59 59 60 60 60 59 59 58 58 59 58 58 58 59 60 59
56 57 57 58 59 59 59 58 58 58 59 59 58 58 57 57 56 55 56 56 57 58
56 57 57 57 57 58 58 58 58 58 57 57 57 59 56 56 55 55 54 54 55 56
57 57 56 56 56 56 56 56 57 57 57 56 57 48 50 53 54 54 55 54 53 54
57 57 56 56 55 54 54 54 55 55 55 55 53 47 47 49 53 53 52 52 52 54
59 58 56 55 54 52 52 53 53 53 54 54 54 46 45 48 51 50 50 51 51 52
60 57 55 55 53 51 51 51 51 53 52 53 53 44 44 49 51 51 51 51 51 51
60 58 56 54 52 52 52 53 53 53 52 51 54 43 43 49 53 52 52 52 51 47
60 58 57 54 53 53 53 53 52 53 52 52 51 50 43 44 54 56 54 54 54 53

GFSNIL_sfc_temp_003.txt.gz
Temp
69 72 68 68 61 63 63 63 63 64 64 64 63 67 69 70 70 69 66 67 65 64
70 69 69 66 64 67 65 65 67 63 65 69 69 66 64 67 67 63 62 63 63 63
69 70 70 70 70 69 69 68 66 62 61 65 68 64 64 65 67 64 70 69 67 66
70 70 70 69 70 70 70 69 67 66 63 63 65 63 63 65 68 69 69 71 70 69
70 70 70 69 70 71 71 72 71 70 69 67 65 64 62 66 69 70 70 69 70 71
69 70 69 69 68 70 72 71 71 72 71 70 69 66 68 69 69 70 71 71 71 70
69 69 70 69 70 71 72 72 72 71 71 70 71 71 70 68 66 66 69 70 71 71
69 69 69 70 70 69 70 72 72 71 71 71 72 73 71 70 70 68 67 67 68 66
69 69 68 68 68 69 69 70 71 71 72 70 72 48 52 66 70 70 69 67 66 66
70 69 69 69 68 67 67 67 69 69 70 69 67 48 48 54 70 70 69 68 68 69
71 71 70 69 68 66 66 67 67 68 69 68 66 47 47 51 67 67 66 67 67 68
72 71 69 69 66 65 65 65 65 68 67 67 67 45 45 57 66 65 64 65 65 66
74 71 69 69 66 65 66 67 70 67 67 60 68 43 44 56 70 65 67 64 64 49
72 70 70 68 66 65 66 67 65 67 66 66 65 63 43 44 68 71 69 70 67 67

GFSNIL_sfc_temp_006.txt.gz
Temp
75 77 67 71 66 65 66 63 66 65 70 70 73 70 73 72 69 69 67 64 66 65
76 75 74 72 73 71 66 67 71 69 67 71 70 69 72 70 70 68 65 64 64 63
76 77 77 76 73 73 72 68 68 70 70 72 73 72 70 69 72 69 67 65 65 62
77 77 77 77 77 75 71 74 69 63 63 64 69 71 71 70 66 65 65 66 65 62
77 77 76 77 77 77 75 74 74 68 64 63 63 67 69 71 70 71 67 67 68 65
75 76 75 75 74 78 74 77 77 72 68 66 64 66 69 68 71 73 74 74 73 70
75 76 76 77 77 78 79 77 77 77 76 74 73 73 76 76 75 75 76 76 77 77
75 76 77 77 77 78 78 79 80 78 78 78 77 78 75 75 75 74 74 75 77 76
77 77 76 76 76 76 77 78 79 78 78 77 77 50 56 70 75 75 74 72 72 70
77 77 76 77 77 76 75 75 76 77 77 75 71 49 52 59 77 75 74 74 75 77
78 78 77 76 75 74 74 74 75 75 76 76 69 48 50 57 76 75 75 75 75 76
80 78 77 76 74 74 73 73 74 76 75 75 71 47 48 58 75 75 74 75 75 75
82 78 76 75 73 73 74 74 78 75 75 65 74 45 46 56 80 73 75 73 72 53
80 78 77 75 74 73 73 76 74 74 74 75 72 64 44 46 78 78 77 77 75 76

GFSNIL_sfc_temp_009.txt.gz
Temp
77 75 74 70 67 64 69 69 71 71 72 72 74 73 72 70 71 72 69 67 67 66
77 76 72 73 70 70 72 68 72 72 72 73 73 72 72 69 72 71 70 67 63 64
78 78 77 77 75 73 69 73 68 72 67 69 72 72 71 70 69 67 66 67 63 62
79 78 78 77 76 72 72 69 73 74 74 71 68 70 70 68 69 67 65 63 62 60
79 78 77 77 76 75 74 69 66 71 73 72 73 68 71 71 69 66 65 63 62 61
77 77 76 75 76 77 77 74 70 70 67 69 73 73 72 66 70 68 67 65 62 63
77 77 77 78 78 78 79 77 76 73 69 67 74 75 75 75 72 70 67 68 70 69
77 78 78 78 79 79 79 79 79 76 75 77 78 72 74 75 74 72 72 72 72 72
78 79 77 77 78 78 79 79 79 79 77 73 73 52 60 72 76 76 73 71 71 70
79 78 77 78 78 77 76 77 78 77 76 73 71 52 54 61 76 76 75 74 74 77
81 79 79 78 77 75 75 76 76 77 76 74 68 52 56 60 77 76 76 76 78 74
82 79 78 77 75 75 75 75 76 77 77 75 70 50 51 59 77 75 75 77 77 77
84 80 78 77 75 75 75 75 79 77 77 67 74 48 48 57 81 75 76 75 72 53
83 80 79 77 76 75 75 77 76 76 76 76 74 64 47 49 74 79 78 78 76 74

GFSNIL_sfc_temp_015.txt.gz
Temp
63 61 61 60 60 60 60 61 63 63 63 63 64 64 63 62 62 62 62 61 60 61
63 63 62 62 62 61 62 63 63 64 63 63 63 63 62 62 62 62 62 61 61 62
64 64 63 62 62 62 62 62 62 64 63 63 63 64 64 63 62 63 62 62 62 61
65 65 64 62 64 61 62 63 64 64 63 63 64 64 63 62 62 62 61 61 61 61
65 64 64 62 63 63 62 63 64 65 64 64 63 62 62 62 62 61 60 60 61 60
63 64 63 62 62 64 62 62 64 64 64 64 64 63 63 63 62 61 61 60 60 60
62 64 63 64 62 64 64 63 63 63 65 66 65 65 64 64 62 62 61 61 61 61
63 64 65 65 65 64 65 64 65 64 63 64 65 66 64 64 62 61 61 61 61 61
65 66 64 64 64 63 63 63 64 63 62 60 62 52 56 61 62 62 61 60 61 60
66 66 65 66 64 62 61 60 60 60 60 57 55 51 53 57 64 62 61 60 60 63
66 66 66 64 62 61 60 59 58 59 59 58 56 50 52 55 62 60 61 61 61 61
67 65 64 62 61 61 60 58 58 59 58 58 56 52 53 60 60 60 60 61 60 61
68 65 63 61 60 61 61 61 61 60 59 57 58 50 51 59 62 57 58 57 57 54
66 65 62 61 61 61 61 61 60 60 58 59 58 55 49 53 61 60 58 58 56 54

GFSNIL_sfc_temp_021.txt.gz
Temp
59 57 57 59 58 57 57 58 59 59 60 60 60 59 58 57 57 58 58 59 59 58
60 59 60 59 58 59 59 61 60 60 60 60 60 59 58 57 58 58 58 57 58 58
60 60 60 60 60 59 59 59 59 59 59 59 59 59 59 60 61 61 61 58 58 59
60 60 59 59 59 59 59 60 60 59 59 59 59 60 61 60 62 61 61 60 60 59
60 60 58 59 59 59 59 60 60 60 60 60 59 61 61 61 58 59 60 60 60 60
59 59 58 59 59 60 60 60 61 60 60 60 59 60 62 62 61 60 60 61 61 61
58 58 59 59 60 60 61 60 60 61 61 61 61 61 61 61 60 60 60 60 61 61
58 59 60 60 60 60 61 61 62 62 62 62 62 61 60 61 60 59 59 60 61 61
60 61 60 59 59 59 59 60 61 62 63 61 61 50 54 58 60 60 60 59 60 60
61 61 59 59 59 57 56 58 59 60 61 59 59 49 50 54 61 60 60 60 60 61
62 60 59 58 57 55 55 55 55 56 59 59 56 47 48 53 61 60 60 60 60 60
62 59 58 57 55 54 54 55 54 55 56 56 55 46 48 57 60 60 59 60 60 61
61 60 58 56 55 54 54 55 57 56 56 52 54 45 47 55 59 57 58 58 58 53
60 59 58 56 56 54 54 54 54 54 53 54 53 50 46 49 58 57 56 56 55 55